184P/Lovas 2 (2006)

Japanese version
Home page
Total 6,336 html files since Dec. 4, 1995
Updated on April 21, 2007

---------------------------------------------------------------------

* Profile

Designation 184P/2007 A1
Rediscovery Date January 9, 2007
Magnitude 16.8 mag
Rediscoverer R. A. Kowalski (Catalina Sky Survey)

* Orbital Elements

                    Epoch = 2006 Dec. 11.0 TT
     T = 2006 Dec. 12.4538 TT         Peri. =  77.4035
     e = 0.604101                     Node  = 278.3039  2000.0
     q = 1.395368 AU                  Incl. =   1.5532
       a =  3.524554 AU    n = 0.1489525    P =   6.62 years

* Finding Charts

* Magnitudes Graph

        m1 = 14.5 + 5 log d + 10.0 log r

        * Gray curve is:  m1 = 11.0 + 5 log d + 15 log r

---------------------------------------------------------------------

The orbital elements are calculated by Dr. Brian G. Marsden and printed on IAUC 8792.
The charts are made with StellaNavigator Ver.2.0 for Windows (AstroArts / ASCII).
The magnitudes graphs are made with Comet for Windows.

---------------------------------------------------------------------

Copyright(C) 1995-2008 Seiichi Yoshida (comet@aerith.net). All rights reserved.